Time,TemperatureF,DewpointF,PressureIn,WindDirection,WindDirectionDegrees,WindSpeedMPH,WindSpeedGustMPH,Humidity,HourlyPrecipIn,Conditions,Clouds,dailyrainin,SoftwareType,DateUTC
2013-03-23 00:16:00,45.5,41.9,29.65,NE,45,5.8,-999.0,87,-99.99,,,0.00,Acu-Link.com,2013-03-23 05:16:00,
2013-03-23 00:31:00,45.3,42.0,29.64,NE,45,5.3,-999.0,88,-99.99,,,0.00,Acu-Link.com,2013-03-23 05:31:00,
2013-03-23 00:46:00,45.3,42.0,29.64,NE,45,4.7,-999.0,88,-99.99,,,0.00,Acu-Link.com,2013-03-23 05:46:00,
2013-03-23 01:02:00,45.5,42.2,29.62,NE,45,4.2,-999.0,88,-99.99,,,0.00,Acu-Link.com,2013-03-23 06:02:00,
2013-03-23 01:17:00,45.7,42.4,29.64,ESE,112,2.7,-999.0,88,-99.99,,,0.00,Acu-Link.com,2013-03-23 06:17:00,
2013-03-23 01:32:00,45.5,42.2,29.64,East,90,3.2,-999.0,88,-99.99,,,0.00,Acu-Link.com,2013-03-23 06:32:00,
2013-03-23 01:47:00,45.5,42.2,29.64,ESE,112,1.7,-999.0,88,-99.99,,,0.00,Acu-Link.com,2013-03-23 06:47:00,
2013-03-23 02:02:00,45.5,42.4,29.64,ESE,112,1.7,-999.0,89,-99.99,,,0.00,Acu-Link.com,2013-03-23 07:02:00,
2013-03-23 02:18:00,45.5,42.4,29.64,NE,45,3.2,-999.0,89,-99.99,,,0.00,Acu-Link.com,2013-03-23 07:18:00,
2013-03-23 02:33:00,45.5,42.4,29.65,NE,45,3.7,-999.0,89,-99.99,,,0.00,Acu-Link.com,2013-03-23 07:33:00,
2013-03-23 02:48:00,45.7,42.6,29.66,NE,45,4.2,-999.0,89,-99.99,,,0.00,Acu-Link.com,2013-03-23 07:48:00,
2013-03-23 03:03:00,46.2,42.8,29.66,NE,45,5.3,-999.0,88,-99.99,,,0.00,Acu-Link.com,2013-03-23 08:03:00,
2013-03-23 03:19:00,46.4,43.0,29.66,NE,45,3.2,-999.0,88,-99.99,,,0.00,Acu-Link.com,2013-03-23 08:19:00,
2013-03-23 03:34:00,46.4,43.0,29.65,NE,45,2.2,-999.0,88,-99.99,,,0.00,Acu-Link.com,2013-03-23 08:34:00,
2013-03-23 03:49:00,46.6,43.2,29.64,NE,45,3.2,-999.0,88,-99.99,,,0.00,Acu-Link.com,2013-03-23 08:49:00,
2013-03-23 04:04:00,46.8,43.4,29.64,NE,45,1.7,-999.0,88,-99.99,,,0.00,Acu-Link.com,2013-03-23 09:04:00,
2013-03-23 04:19:00,46.9,43.8,29.63,East,90,4.2,-999.0,89,-99.99,,,0.00,Acu-Link.com,2013-03-23 09:19:00,
2013-03-23 04:35:00,46.9,43.8,29.63,East,90,3.7,-999.0,89,-99.99,,,0.00,Acu-Link.com,2013-03-23 09:35:00,
2013-03-23 04:50:00,47.1,44.0,29.64,NE,45,6.3,-999.0,89,-99.99,,,0.00,Acu-Link.com,2013-03-23 09:50:00,
2013-03-23 05:05:00,47.3,44.2,29.64,NE,45,4.2,-999.0,89,-99.99,,,0.00,Acu-Link.com,2013-03-23 10:05:00,
2013-03-23 05:21:00,47.1,44.3,29.63,NE,45,4.2,-999.0,90,-99.99,,,0.00,Acu-Link.com,2013-03-23 10:21:00,
2013-03-23 05:36:00,46.9,44.4,29.63,NNE,22,6.8,-999.0,91,-99.99,,,0.00,Acu-Link.com,2013-03-23 10:36:00,
2013-03-23 06:21:00,46.8,44.6,29.65,NE,45,3.7,-999.0,92,-99.99,,,0.00,Acu-Link.com,2013-03-23 11:21:00,
2013-03-23 06:36:00,46.8,44.6,29.67,NNE,22,3.2,-999.0,92,-99.99,,,0.00,Acu-Link.com,2013-03-23 11:36:00,
2013-03-23 06:52:00,46.8,44.6,29.67,NE,45,3.2,-999.0,92,-99.99,,,0.00,Acu-Link.com,2013-03-23 11:52:00,
2013-03-23 07:07:00,46.9,44.7,29.64,ENE,67,6.8,-999.0,92,-99.99,,,0.00,Acu-Link.com,2013-03-23 12:07:00,
2013-03-23 07:22:00,46.9,45.0,29.63,East,90,5.3,-999.0,93,-99.99,,,0.00,Acu-Link.com,2013-03-23 12:22:00,
2013-03-23 07:38:00,46.8,44.9,29.62,East,90,7.8,-999.0,93,-99.99,,,0.00,Acu-Link.com,2013-03-23 12:38:00,
2013-03-23 07:53:00,46.8,44.9,29.62,East,90,5.8,-999.0,93,-99.99,,,0.00,Acu-Link.com,2013-03-23 12:53:00,
2013-03-23 08:08:00,46.9,45.0,29.63,East,90,3.2,-999.0,93,-99.99,,,0.00,Acu-Link.com,2013-03-23 13:08:00,
2013-03-23 08:24:00,47.3,45.4,29.62,East,90,2.7,-999.0,93,-99.99,,,0.00,Acu-Link.com,2013-03-23 13:24:00,
2013-03-23 08:39:00,47.7,45.8,29.64,East,90,4.7,-999.0,93,-99.99,,,0.00,Acu-Link.com,2013-03-23 13:39:00,
2013-03-23 08:54:00,47.8,45.6,29.65,ESE,112,2.7,-999.0,92,-99.99,,,0.00,Acu-Link.com,2013-03-23 13:54:00,
2013-03-23 09:09:00,48.2,46.3,29.65,SE,135,2.7,-999.0,93,-99.99,,,0.00,Acu-Link.com,2013-03-23 14:09:00,
2013-03-23 09:24:00,48.2,46.6,29.65,ESE,112,4.7,-999.0,94,-99.99,,,0.00,Acu-Link.com,2013-03-23 14:24:00,
2013-03-23 09:40:00,48.6,46.7,29.66,ESE,112,2.2,-999.0,93,-99.99,,,0.00,Acu-Link.com,2013-03-23 14:40:00,
2013-03-23 09:55:00,49.1,46.6,29.65,ESE,112,4.2,-999.0,91,-99.99,,,0.00,Acu-Link.com,2013-03-23 14:55:00,
2013-03-23 10:10:00,51.3,47.9,29.65,ESE,112,6.8,-999.0,88,-99.99,,,0.00,Acu-Link.com,2013-03-23 15:10:00,
2013-03-23 10:26:00,51.3,47.9,29.64,SE,135,3.2,-999.0,88,-99.99,,,0.00,Acu-Link.com,2013-03-23 15:26:00,
2013-03-23 10:41:00,52.5,48.4,29.64,SE,135,4.2,-999.0,86,-99.99,,,0.00,Acu-Link.com,2013-03-23 15:41:00,
2013-03-23 11:12:00,54.1,48.7,29.63,SE,135,2.7,-999.0,82,-99.99,,,0.00,Acu-Link.com,2013-03-23 16:12:00,
2013-03-23 11:27:00,56.1,49.3,29.63,SE,135,3.7,-999.0,78,-99.99,,,0.00,Acu-Link.com,2013-03-23 16:27:00,
2013-03-23 11:42:00,57.6,50.1,29.62,SE,135,3.7,-999.0,76,-99.99,,,0.00,Acu-Link.com,2013-03-23 16:42:00,
2013-03-23 11:58:00,57.9,50.0,29.63,SW,225,2.2,-999.0,75,-99.99,,,0.00,Acu-Link.com,2013-03-23 16:58:00,
2013-03-23 12:13:00,58.8,50.5,29.63,WSW,247,2.7,-999.0,74,-99.99,,,0.00,Acu-Link.com,2013-03-23 17:13:00,
2013-03-23 12:28:00,61.9,51.6,29.62,SW,225,4.2,-999.0,69,-99.99,,,0.00,Acu-Link.com,2013-03-23 17:28:00,
2013-03-23 12:43:00,61.3,51.4,29.61,WSW,247,1.1,-999.0,70,-99.99,,,0.00,Acu-Link.com,2013-03-23 17:43:00,
2013-03-23 12:59:00,63.0,52.7,29.60,South,180,2.2,-999.0,69,-99.99,,,0.00,Acu-Link.com,2013-03-23 17:59:00,
2013-03-23 13:15:00,62.6,52.7,29.59,NNW,337,1.7,-999.0,70,-99.99,,,0.00,Acu-Link.com,2013-03-23 18:15:00,
2013-03-23 13:30:00,66.0,53.5,29.58,SSE,157,7.3,-999.0,64,-99.99,,,0.00,Acu-Link.com,2013-03-23 18:30:00,
2013-03-23 14:01:00,66.7,54.1,29.57,WSW,247,5.3,-999.0,64,-99.99,,,0.00,Acu-Link.com,2013-03-23 19:01:00,
2013-03-23 14:16:00,66.6,54.9,29.56,West,270,2.7,-999.0,66,-99.99,,,0.00,Acu-Link.com,2013-03-23 19:16:00,
2013-03-23 14:47:00,70.0,54.5,29.53,SW,225,4.2,-999.0,58,-99.99,,,0.00,Acu-Link.com,2013-03-23 19:47:00,
2013-03-23 15:02:00,71.4,53.4,29.52,SW,225,3.2,-999.0,53,-99.99,,,0.00,Acu-Link.com,2013-03-23 20:02:00,
2013-03-23 15:18:00,71.2,53.2,29.51,West,270,5.8,-999.0,53,-99.99,,,0.00,Acu-Link.com,2013-03-23 20:18:00,
2013-03-23 15:33:00,72.1,52.4,29.50,NNE,22,4.2,-999.0,50,-99.99,,,0.00,Acu-Link.com,2013-03-23 20:33:00,
2013-03-23 15:48:00,73.6,52.7,29.49,SSE,157,1.7,-999.0,48,-99.99,,,0.00,Acu-Link.com,2013-03-23 20:48:00,
2013-03-23 16:03:00,73.8,52.9,29.49,NE,45,4.2,-999.0,48,-99.99,,,0.00,Acu-Link.com,2013-03-23 21:03:00,
2013-03-23 16:18:00,75.0,52.8,29.48,NNE,22,3.7,-999.0,46,-99.99,,,0.00,Acu-Link.com,2013-03-23 21:18:00,
2013-03-23 16:34:00,75.4,52.0,29.47,NNE,22,5.3,-999.0,44,-99.99,,,0.00,Acu-Link.com,2013-03-23 21:34:00,
2013-03-23 16:49:00,75.6,52.1,29.47,NE,45,5.3,-999.0,44,-99.99,,,0.00,Acu-Link.com,2013-03-23 21:49:00,
2013-03-23 17:04:00,76.1,51.3,29.47,NNE,22,7.8,-999.0,42,-99.99,,,0.00,Acu-Link.com,2013-03-23 22:04:00,
2013-03-23 17:19:00,75.2,50.5,29.47,NNE,22,3.7,-999.0,42,-99.99,,,0.00,Acu-Link.com,2013-03-23 22:19:00,
2013-03-23 17:34:00,75.4,50.7,29.46,NNE,22,5.8,-999.0,42,-99.99,,,0.00,Acu-Link.com,2013-03-23 22:34:00,
2013-03-23 17:49:00,75.6,50.2,29.46,NE,45,5.8,-999.0,41,-99.99,,,0.00,Acu-Link.com,2013-03-23 22:49:00,
2013-03-23 18:04:00,76.1,52.0,29.47,NE,45,7.3,-999.0,43,-99.99,,,0.00,Acu-Link.com,2013-03-23 23:04:00,
2013-03-23 18:19:00,75.2,53.0,29.45,ENE,67,5.8,-999.0,46,-99.99,,,0.00,Acu-Link.com,2013-03-23 23:19:00,
2013-03-23 18:34:00,73.9,53.5,29.46,NE,45,5.3,-999.0,49,-99.99,,,0.00,Acu-Link.com,2013-03-23 23:34:00,
2013-03-23 18:49:00,72.0,53.4,29.46,ESE,112,6.8,-999.0,52,-99.99,,,0.00,Acu-Link.com,2013-03-23 23:49:00,
2013-03-23 19:04:00,70.2,53.8,29.46,North,0,10.9,-999.0,56,-99.99,,,0.00,Acu-Link.com,2013-03-24 00:04:00,
2013-03-23 19:20:00,68.7,53.3,29.46,ENE,67,6.3,-999.0,58,-99.99,,,0.00,Acu-Link.com,2013-03-24 00:20:00,
2013-03-23 19:35:00,67.3,53.4,29.46,East,90,7.3,-999.0,61,-99.99,,,0.00,Acu-Link.com,2013-03-24 00:35:00,
2013-03-23 20:06:00,65.5,53.4,29.46,East,90,5.8,-999.0,65,-99.99,,,0.00,Acu-Link.com,2013-03-24 01:06:00,
2013-03-23 20:22:00,64.6,54.2,29.46,ENE,67,5.8,-999.0,69,-99.99,,,0.00,Acu-Link.com,2013-03-24 01:22:00,
2013-03-23 20:37:00,63.5,53.9,29.46,ENE,67,6.3,-999.0,71,-99.99,,,0.00,Acu-Link.com,2013-03-24 01:37:00,
2013-03-23 20:52:00,62.4,53.6,29.48,SSE,157,4.2,-999.0,73,-99.99,,,0.00,Acu-Link.com,2013-03-24 01:52:00,
2013-03-23 21:08:00,61.3,53.3,29.49,ESE,112,5.8,-999.0,75,-99.99,,,0.00,Acu-Link.com,2013-03-24 02:08:00,
2013-03-23 21:23:00,61.0,53.4,29.49,ESE,112,4.7,-999.0,76,-99.99,,,0.00,Acu-Link.com,2013-03-24 02:23:00,
2013-03-23 21:38:00,60.1,53.2,29.50,ESE,112,4.2,-999.0,78,-99.99,,,0.00,Acu-Link.com,2013-03-24 02:38:00,
2013-03-23 21:53:00,59.0,52.8,29.51,East,90,4.7,-999.0,80,-99.99,,,0.00,Acu-Link.com,2013-03-24 02:53:00,
2013-03-23 22:09:00,58.1,52.6,29.51,SE,135,3.7,-999.0,82,-99.99,,,0.00,Acu-Link.com,2013-03-24 03:09:00,
2013-03-23 22:24:00,57.4,52.6,29.52,SE,135,2.2,-999.0,84,-99.99,,,0.00,Acu-Link.com,2013-03-24 03:24:00,
2013-03-23 22:40:00,56.8,52.7,29.52,East,90,2.7,-999.0,86,-99.99,,,0.00,Acu-Link.com,2013-03-24 03:40:00,
2013-03-23 22:55:00,58.1,54.6,29.56,ENE,67,4.7,-999.0,88,-99.99,,,0.00,Acu-Link.com,2013-03-24 03:55:00,
2013-03-23 23:10:00,56.3,51.8,29.64,NE,45,17.6,-999.0,85,-99.99,,,0.00,Acu-Link.com,2013-03-24 04:10:00,
2013-03-23 23:25:00,55.0,50.9,29.64,NNE,22,11.9,-999.0,86,-99.99,,,0.00,Acu-Link.com,2013-03-24 04:25:00,
2013-03-23 23:40:00,54.7,50.6,29.67,NE,45,14.5,-999.0,86,-99.99,,,0.00,Acu-Link.com,2013-03-24 04:40:00,
2013-03-23 23:55:00,53.8,49.7,29.68,North,0,14.5,-999.0,86,-99.99,,,0.00,Acu-Link.com,2013-03-24 04:55:00,